{"data":{"norad_id":63361,"epoch":"2026-09-19T03:39:51.818112Z","epoch_age_seconds":134758,"freshness":"FRESH","line1":"1 63361U 25062A   26262.15268308 -.00000142  00000+0  00000+0 0  9991","line2":"2 63361   4.1407 273.1402 0032879   8.0750 211.8254  1.00271194  5547","mean_motion":1.00271194,"eccentricity":0.0032879,"inclination_deg":4.1407,"raan_deg":273.1402,"arg_perigee_deg":8.075,"mean_anomaly_deg":211.8254,"bstar":0,"rev_number":554,"period_min":1436.1053684072,"perigee_km":35648.126673805,"apogee_km":35925.394607711,"semimajor_km":42164.897640758,"source":"CELESTRAK","updated_at":"2026-09-20T09:00:35.343053Z"}}